Tracking 19909 objects as of 23-Oct-2019
HD Live streaming from Space Station
objects crossing your sky now

FLOCK 1C 5

Track FLOCK 1C 5 now!
10-day predictions
FLOCK 1C 5 is classified as:


NORAD ID: 40038
Int'l Code: 2014-033AE
Perigee: 595.0 km
Apogee: 614.8 km
Inclination: 97.9 °
Period: 96.6 minutes
Semi major axis: 6975 km
RCS: Unknown
Launch date: June 19, 2014
Source: United States (US)
Launch site: Orenburg, Russia (OREN)
aabbcc
Your satellite tracking list
Your tracking list is empty




NASA's NSSDC Master Catalog

Two Line Element Set (TLE):
1 40038U 14033AE  19295.83980351 +.00000461 +00000-0 +53614-4 0  9993
2 40038 097.9296 219.9594 0014159 357.1525 002.9609 14.90055192289692
Source of the keplerian elements: AFSPC